EHI
15 14 14 10 3 0 0 0 0 0 0 0 0 0 0 0 0 0 0 1 2 3 3 3 2 1 0 0 0 0 1 0 0 1 1 0 0 0 0 0 0 1 2 2 1 0 1 2 3
10 9 8 5 1 0 0 0 0 0 0 0 0 0 0 0 0 0 0 1 2 3 3 2 2 1 0 0 0 0 1 1 1 2 2 1 0 0 0 0 0 1 2 2 1 0 2 3 3
6 4 3 1 0 0 0 0 0 0 0 0 0 0 0 0 0 0 0 1 1 2 3 3 3 1 0 0 0 0 0 1 1 2 2 1 0 0 0 0 0 0 1 1 0 1 2 3 2
4 3 1 0 0 0 1 1 1 1 0 0 0 0 1 1 0 0 0 1 1 3 5 4 3 2 1 0 0 0 0 0 1 1 1 0 0 0 0 1 0 0 0 0 0 0 1 1 1
3 2 0 0 0 0 1 2 2 1 0 0 1 1 1 1 1 0 0 0 1 2 3 3 3 2 1 1 1 1 0 0 0 0 0 0 0 0 0 1 0 0 0 0 0 0 0 0 0
3 1 0 0 0 1 2 3 2 1 0 0 1 2 2 2 1 1 0 0 0 1 1 1 1 1 1 2 2 2 1 0 0 0 0 0 0 0 0 1 0 0 0 0 0 0 0 0 0
2 1 0 0 0 1 1 2 1 0 0 0 1 2 3 3 3 2 1 1 1 0 0 0 0 0 1 1 2 2 1 1 2 1 1 0 0 0 0 0 0 0 0 0 0 0 0 0 0
2 2 1 0 0 0 0 0 0 0 0 0 1 2 3 4 4 3 2 2 1 0 0 0 0 0 0 0 1 1 2 2 3 3 2 1 1 0 0 0 0 0 0 0 0 0 0 0 0
2 2 1 0 0 0 0 0 0 0 0 0 1 1 2 4 4 3 2 2 1 0 0 0 0 0 0 0 0 0 1 2 3 3 3 3 2 1 0 0 0 0 0 0 0 0 0 0 0
2 2 1 0 0 0 0 0 0 0 0 0 0 0 1 4 3 2 2 1 1 0 0 0 0 0 0 0 0 0 0 1 1 2 3 3 2 1 0 0 0 0 0 1 0 0 0 0 0
1 1 0 0 0 0 0 0 0 0 0 0 0 0 1 2 3 3 2 2 1 0 1 1 1 0 0 0 0 0 0 0 0 1 2 1 1 0 0 0 0 0 0 0 0 0 0 0 0
0 0 0 0 0 0 0 0 0 0 0 0 0 0 0 1 2 2 2 2 1 0 1 1 1 0 0 0 0 0 0 0 0 0 0 0 0 0 0 0 0 0 0 0 0 0 0 0 0
0 0 0 0 0 0 0 0 0 0 0 0 0 0 0 0 1 1 1 1 0 0 0 0 0 0 0 0 0 0 0 0 0 0 0 0 0 0 0 0 0 0 0 0 0 0 0 0 0
0 0 0 0 0 0 0 0 0 0 0 0 0 0 0 0 0 0 0 0 0 0 0 0 1 1 1 1 0 0 0 0 0 0 0 0 0 0 0 0 0 0 0 0 0 0 0 0 0
0 0 0 0 0 0 0 0 0 0 0 0 0 0 0 0 0 0 0 0 0 0 0 0 1 2 2 1 0 0 0 0 0 0 0 0 0 0 0 0 0 0 0 0 0 0 0 0 0
0 0 0 0 0 0 0 0 0 0 0 0 0 0 0 0 0 0 0 0 0 0 0 0 1 1 2 1 0 0 0 0 0 0 0 0 0 0 0 0 0 0 0 0 0 0 0 0 0
0 0 0 0 0 0 0 0 0 0 0 0 0 0 0 0 0 0 0 0 0 0 0 0 0 0 1 1 0 0 0 0 0 0 0 0 0 0 0 0 0 0 0 0 0 0 0 0 0
0 0 0 0 0 0 0 0 0 0 0 0 0 0 0 0 0 0 0 0 0 0 0 0 0 0 0 0 0 0 0 1 1 1 1 1 1 2 2 1 1 0 0 0 0 0 0 0 0
0 0 0 0 0 0 0 0 0 0 0 0 0 0 0 0 0 0 0 1 1 1 1 1 1 1 0 0 0 1 2 3 3 2 1 2 3 4 4 3 2 1 0 0 0 0 0 0 0
0 0 0 0 0 0 0 0 0 0 0 0 0 0 0 0 0 0 1 2 2 2 2 2 2 1 0 1 1 2 3 3 3 3 1 1 2 4 3 2 2 1 0 0 0 0 0 0 0
0 0 0 0 0 0 0 0 0 0 0 0 0 0 0 0 0 0 1 2 2 2 2 1 1 0 1 2 3 3 3 3 3 4 3 1 1 3 3 2 1 0 0 0 0 0 0 0 0
0 0 0 0 0 0 0 0 0 0 0 0 0 0 0 1 1 1 0 1 1 3 2 1 0 0 1 4 4 3 3 3 4 5 5 3 2 3 3 2 1 0 0 0 0 0 0 0 0
0 0 0 0 0 0 0 0 0 0 0 0 0 0 0 1 1 1 0 0 2 4 3 1 0 1 2 4 4 3 3 3 3 4 5 4 3 3 3 1 0 0 0 0 0 0 0 0 0
0 0 0 0 0 0 0 0 0 0 0 0 0 0 0 0 1 0 1 3 5 5 4 2 1 2 4 5 4 3 3 3 3 4 6 5 4 3 2 1 0 0 0 0 0 0 0 0 0
0 0 0 0 0 0 0 0 0 0 0 0 0 0 0 0 1 2 3 7 8 6 4 2 2 4 5 5 4 4 3 3 3 5 6 6 5 4 2 1 0 0 0 0 0 0 0 0 0
0 0 0 0 0 0 0 0 0 0 0 0 0 0 0 0 2 4 6 8 8 6 3 2 3 5 6 5 4 4 4 3 4 6 6 6 6 4 2 1 0 0 0 0 0 0 0 0 0
0 0 0 0 0 0 0 0 0 0 0 0 0 0 0 0 2 5 7 7 6 4 3 3 4 6 7 6 4 4 4 4 5 7 7 6 6 4 2 1 0 0 0 0 0 0 0 0 0
0 0 0 0 0 0 0 0 0 0 0 0 0 0 0 0 2 4 8 8 6 4 3 4 6 7 7 6 5 5 5 5 7 8 8 6 5 3 2 1 0 0 0 0 0 0 0 0 0
0 0 0 0 0 0 0 0 0 0 0 0 0 0 0 1 1 3 7 9 8 5 4 4 6 7 8 7 6 6 6 6 7 8 8 6 4 2 1 0 0 0 0 0 0 0 0 0 0
0 0 0 0 0 0 0 0 0 0 0 0 0 0 1 1 1 2 6 8 8 7 5 4 5 7 7 7 6 6 6 6 7 8 7 6 3 1 0 0 0 0 0 0 0 0 0 0 0
Wind_Speed
8 8 6 2 2 1 2 5 6 5 6 8 9 10 12 12 9 8 3 5 8 10 10 9 9 10 10 11 11 11 10 10 10 10 10 11 10 10 10 9 10 10 10 10 10 10 10 10 9
8 6 3 2 2 1 3 6 7 7 7 7 8 10 12 11 11 8 4 5 8 10 9 9 10 10 10 10 10 11 11 10 10 10 11 11 10 10 10 10 10 10 10 10 10 10 10 9 9
10 7 3 2 0 2 5 7 8 7 5 6 7 9 9 8 8 6 5 6 9 10 10 10 10 10 10 10 10 10 10 11 11 11 11 11 11 11 11 11 10 10 10 10 10 10 9 9 8
5 3 3 1 2 4 7 7 6 8 6 6 7 9 8 7 6 7 7 8 10 10 10 9 10 10 10 10 10 10 10 11 11 11 11 11 11 11 11 11 11 10 10 10 10 10 9 8 8
3 3 2 1 2 5 6 6 6 5 6 7 9 10 9 8 9 9 7 8 9 9 9 9 10 10 10 10 10 10 10 11 10 11 11 11 11 10 10 11 10 10 10 10 9 9 8 8 8
2 2 2 2 4 5 5 4 5 6 7 8 8 9 7 7 8 7 7 7 8 9 9 9 10 10 10 10 10 10 10 10 10 10 10 10 10 10 10 10 10 10 9 9 9 8 8 7 7
3 2 1 2 5 4 4 4 5 5 6 6 6 8 7 7 6 6 7 7 8 8 8 7 7 8 10 10 9 10 9 9 9 9 9 9 9 9 9 9 9 9 9 9 8 8 7 6 6
3 2 1 2 4 4 4 4 5 6 6 4 4 7 7 8 7 6 6 6 6 7 7 6 6 7 7 7 9 9 8 8 8 7 6 6 7 8 8 8 7 7 7 7 7 7 6 5 4
3 2 0 1 3 4 5 4 5 5 6 6 7 9 11 11 9 7 6 5 5 5 5 5 5 6 6 6 7 6 6 5 5 4 4 3 3 3 4 7 7 7 5 5 5 4 3 2 1
1 1 2 2 4 4 4 4 4 4 5 6 8 11 12 10 8 8 6 5 5 5 4 4 5 6 5 5 5 3 3 2 2 2 2 1 2 3 5 6 6 5 4 3 2 1 1 1 0
1 2 3 4 5 4 3 4 2 2 3 5 8 10 10 9 8 7 6 5 5 5 4 4 5 5 5 3 3 1 2 1 1 2 2 2 3 2 3 2 2 2 2 1 1 1 1 0 1
2 3 3 3 4 3 2 3 2 3 4 5 8 10 9 8 7 6 6 6 5 5 4 4 5 4 4 4 3 2 1 1 1 1 2 2 1 1 1 1 1 1 1 0 0 0 1 2 2
2 2 3 3 3 2 2 3 3 3 4 6 8 9 8 7 6 6 6 6 6 5 3 4 4 4 4 4 2 3 2 2 2 1 1 2 2 1 2 2 1 2 1 1 1 2 3 3 3
2 3 2 3 3 2 2 3 3 4 5 6 7 7 7 6 6 6 6 5 6 5 4 3 4 4 4 3 2 2 3 2 2 1 2 3 2 2 2 3 2 2 2 2 2 2 2 2 2
3 4 4 4 4 3 2 3 4 6 6 7 7 6 6 6 6 6 6 5 6 6 5 4 3 5 4 3 2 3 2 2 2 1 2 3 2 2 2 3 2 2 2 2 2 3 2 2 2
7 6 4 4 4 4 4 3 4 6 7 6 6 6 6 6 6 6 6 5 5 5 5 4 4 5 4 3 3 2 2 2 2 2 2 3 3 3 3 3 2 2 3 2 2 2 2 2 2
6 5 4 4 6 5 5 3 5 6 6 7 6 6 7 7 6 6 6 6 5 6 6 5 4 4 4 3 3 3 3 2 2 2 2 3 3 3 3 3 2 3 3 2 2 2 2 2 2
3 3 2 4 5 5 4 3 5 7 7 6 7 8 8 8 7 7 6 6 6 6 6 6 5 3 3 3 3 2 2 2 2 2 2 3 2 3 3 2 2 3 3 2 2 2 2 1 1
5 5 4 1 2 3 4 5 6 7 7 7 7 7 7 7 8 8 7 6 5 5 5 6 5 4 3 2 2 2 2 2 2 2 2 3 3 3 3 2 2 2 2 1 2 2 2 1 1
6 6 5 2 2 3 5 7 6 7 9 8 7 7 8 8 8 8 8 6 5 5 5 6 6 5 4 2 2 2 2 2 2 1 2 2 2 2 2 2 2 2 2 2 2 2 1 1 1
6 5 5 4 5 7 7 7 7 7 7 8 7 6 7 8 8 8 8 7 6 5 5 5 5 5 4 4 2 2 2 1 2 2 1 1 2 3 3 2 2 1 1 1 1 1 2 1 2
5 4 5 6 5 5 6 5 5 7 8 8 8 7 6 6 7 8 7 7 6 5 5 5 6 6 5 5 3 3 2 2 2 2 2 1 1 2 1 1 1 1 1 1 1 2 1 1 1
5 5 6 8 8 9 9 7 4 6 8 8 7 7 6 6 7 7 7 6 6 5 4 4 5 5 5 5 4 3 2 2 1 2 2 2 1 1 1 1 1 1 1 1 1 2 2 1 1
5 6 7 8 7 8 10 7 3 3 5 8 7 7 6 6 7 6 7 6 5 5 4 3 4 4 5 5 5 3 3 2 2 2 2 1 1 1 1 1 1 1 1 1 1 1 1 1 1
6 5 3 4 5 6 4 4 1 4 3 5 7 6 6 6 6 6 7 7 6 6 5 4 4 4 4 5 5 4 4 3 3 3 2 2 1 1 1 1 1 1 1 1 1 1 0 0 1
7 8 5 3 3 3 2 3 3 6 5 6 6 5 6 6 6 6 6 7 6 6 6 5 5 4 4 4 4 4 4 3 2 3 2 2 2 2 2 2 2 1 1 1 1 0 0 0 0
7 7 7 7 8 6 3 2 4 6 7 6 6 5 5 5 5 6 5 6 6 6 6 5 5 4 4 4 3 4 4 3 3 3 3 2 2 2 2 2 2 2 2 1 1 0 0 0 0
9 7 4 4 4 5 4 3 3 7 8 7 6 5 4 4 4 5 5 6 6 6 5 5 5 4 4 4 3 3 3 4 4 3 3 3 3 2 2 2 2 2 1 1 1 0 0 0 0
8 8 6 4 5 4 3 1 3 5 6 6 5 4 4 4 4 4 4 5 5 5 5 5 4 4 4 4 3 3 3 3 3 3 3 3 3 2 2 2 2 2 2 2 2 1 1 1 1
7 7 6 5 5 4 4 1 3 5 5 5 4 5 4 3 4 4 4 4 5 5 5 4 4 4 3 3 3 3 3 3 3 3 3 3 3 3 3 2 2 2 2 2 2 2 2 2 2
Wind_Direction
270 253 244 249 261 207 83 77 78 75 64 53 55 65 64 50 55 91 123 87 95 101 101 90 77 75 71 71 71 70 76 78 77 75 74 74 73 73 73 78 80 78 76 73 69 66 62 57 56
270 264 258 235 249 143 87 89 86 72 81 78 64 67 72 67 74 96 106 91 97 95 94 89 82 79 75 72 71 72 76 78 77 75 72 72 71 69 74 81 80 79 76 74 72 69 63 58 55
259 262 261 244 269 77 96 92 99 92 87 89 79 63 57 68 79 96 112 108 95 93 94 93 86 83 79 76 73 73 75 77 77 76 73 71 71 73 76 80 81 79 76 73 71 68 63 60 57
259 257 244 241 55 74 98 107 114 115 97 80 88 80 67 57 79 105 112 101 97 96 98 98 92 89 86 81 76 75 74 77 78 77 73 70 69 73 78 79 77 77 74 72 70 66 62 56 51
237 251 224 149 94 74 87 108 113 104 99 88 85 92 86 78 93 104 101 96 96 97 101 103 97 94 90 86 81 78 78 77 79 79 75 72 70 72 78 79 78 77 76 75 70 65 62 57 50
269 255 230 145 111 92 84 90 96 97 98 96 100 103 95 102 99 102 104 100 102 105 106 105 102 102 96 90 85 82 81 80 83 83 80 75 76 79 79 81 80 80 78 77 74 70 68 61 53
269 271 242 129 117 107 94 82 81 87 84 83 102 105 115 109 108 111 107 101 104 108 110 116 120 112 104 97 91 89 88 88 90 90 88 86 83 86 88 84 82 80 79 78 75 72 73 67 59
283 292 275 122 124 110 99 91 79 75 79 72 84 112 131 133 129 122 111 102 104 110 114 122 126 125 122 113 102 100 99 99 102 103 102 102 99 94 94 90 91 89 87 88 85 80 74 70 64
269 273 4 78 109 118 118 107 93 94 97 85 72 91 123 133 138 129 116 112 110 112 121 129 129 122 119 123 116 119 114 112 121 126 135 135 123 117 103 95 98 94 95 99 98 96 100 96 72
221 4 34 59 95 120 121 109 121 130 111 104 98 101 122 138 142 138 138 137 127 121 122 123 115 113 115 115 124 137 126 129 138 130 144 147 108 97 97 107 116 110 107 108 124 178 199 201 226
134 63 49 57 81 107 115 103 87 111 106 115 125 131 137 141 142 143 141 135 127 121 116 116 115 114 113 110 117 106 107 123 118 100 99 86 89 104 111 127 129 141 143 147 186 223 245 165 99
134 103 86 89 92 114 113 109 79 61 75 100 122 133 139 144 149 154 149 144 134 125 125 120 113 117 114 109 108 102 90 98 69 56 79 84 79 71 90 104 121 130 122 155 124 144 47 36 60
140 121 118 110 126 132 133 119 104 93 98 109 121 132 143 152 153 148 141 141 133 130 131 116 114 116 116 109 110 103 80 73 83 56 57 82 75 58 66 72 61 60 63 53 29 54 55 37 34
131 140 158 160 154 159 165 158 155 141 139 133 134 141 149 152 148 144 138 138 136 138 134 114 119 111 104 109 116 109 99 79 62 43 40 68 75 67 54 63 53 50 44 31 43 55 61 55 51
184 193 195 187 185 178 199 208 182 155 151 144 149 153 149 152 150 147 143 149 144 142 134 123 118 102 99 98 96 97 104 97 81 41 34 56 63 72 69 61 50 38 44 37 41 42 45 51 52
216 214 207 187 196 182 223 236 165 160 165 160 161 161 157 159 160 152 147 146 143 142 136 134 133 115 110 96 86 83 77 74 65 46 31 44 49 55 66 63 44 37 41 34 35 43 40 35 39
228 226 204 181 202 201 218 222 167 173 181 172 171 171 166 166 164 156 152 154 152 151 148 144 127 118 118 111 100 87 82 73 67 55 30 32 40 47 65 58 41 52 42 32 27 40 39 34 29
254 257 213 198 193 209 225 227 190 181 194 190 181 180 174 174 171 164 161 157 154 156 151 140 132 126 124 112 105 93 86 82 75 65 39 27 31 45 62 57 33 60 48 27 28 38 21 36 6
269 274 272 230 189 211 242 239 206 191 192 202 195 184 179 177 172 164 162 153 154 154 149 140 142 140 127 110 104 99 94 85 75 71 63 44 34 37 55 57 39 49 60 42 40 45 22 8 9
260 266 268 262 243 244 249 251 218 198 196 199 197 189 185 177 171 162 163 161 165 161 156 151 153 149 136 123 126 130 122 119 116 96 69 60 52 40 51 59 69 60 49 30 40 42 25 347 8
254 267 280 281 287 274 264 258 221 198 195 189 193 187 184 176 170 164 168 168 167 165 163 155 151 143 137 138 123 112 100 100 94 100 81 53 57 59 47 32 55 81 83 59 37 44 58 344 336
268 283 287 279 273 271 258 268 230 191 185 184 183 184 182 176 166 159 164 165 169 166 161 158 154 149 148 142 141 142 146 151 158 140 134 118 82 80 67 52 42 70 78 76 35 47 25 35 339
275 296 285 274 270 273 261 261 231 177 179 178 173 171 166 159 156 154 163 163 163 158 156 161 156 152 152 148 150 155 151 145 142 127 134 142 118 105 83 66 51 64 77 72 58 49 17 20 1
268 271 268 259 260 260 247 241 231 173 165 158 157 156 156 152 152 152 160 154 154 147 147 155 155 151 151 153 155 162 155 153 148 143 150 152 144 161 159 124 98 85 96 82 70 74 27 9 359
241 256 255 229 218 238 225 225 169 100 94 131 137 143 144 144 147 151 154 154 155 150 151 154 152 151 158 164 166 174 169 175 165 158 168 167 157 174 205 170 160 146 134 118 87 88 92 23 12
236 242 258 276 272 284 249 214 129 116 105 102 113 121 132 140 143 149 152 156 154 151 157 166 163 160 166 177 178 176 172 173 168 173 170 174 166 177 191 177 172 168 147 136 129 78 105 65 343
247 247 264 284 293 286 242 154 137 131 126 126 129 128 129 131 137 143 144 150 155 157 163 169 168 168 172 183 186 181 175 178 173 177 173 168 172 179 177 184 174 171 149 148 144 158 139 2 324
241 265 275 260 278 278 270 229 174 158 155 146 135 130 131 130 135 142 144 149 155 161 166 172 174 176 177 181 191 188 185 185 179 184 183 173 175 170 185 193 179 168 162 164 139 194 248 184 272
222 236 248 258 255 275 291 334 79 136 136 135 134 124 120 128 136 138 143 147 149 151 161 173 179 177 181 188 192 187 190 187 179 187 178 166 167 176 195 191 184 182 181 171 163 198 205 216 229
232 242 244 250 265 268 275 288 84 104 109 109 110 110 109 115 125 128 130 136 146 155 162 170 176 178 180 184 187 188 183 177 183 193 178 170 178 190 194 189 197 200 191 183 181 207 220 220 231